RH
2 3 3 4 6 7 10 13 17 50 95 100 100 84 98 100 92 95 100 100 100 100 100 100 100 99 100 100 100 100 100 100 100 90 64 53 49 48 56 42 40 44 36
2 3 3 4 6 8 8 20 41 91 100 100 100 80 90 94 100 96 100 100 100 100 100 100 100 100 100 100 100 100 100 92 90 55 53 56 72 61 65 56 63 59 53
3 4 5 6 7 8 15 31 69 82 96 100 100 89 83 95 100 93 100 100 100 100 100 100 100 100 100 100 100 100 100 96 72 72 80 98 86 71 74 76 82 75 51
8 8 8 7 8 12 22 42 74 100 100 100 100 98 90 100 100 100 100 100 100 100 100 100 100 100 100 100 100 100 100 91 72 86 99 98 92 80 91 82 75 58 50
13 15 18 20 26 34 69 80 100 100 100 100 100 100 100 100 100 100 100 100 100 100 100 100 100 100 100 100 100 100 88 88 95 100 99 89 77 81 74 59 57 37 56
50 26 20 61 95 78 100 100 100 100 100 100 100 100 100 100 100 100 100 100 100 100 100 100 100 100 100 100 100 100 100 100 91 89 62 55 52 43 51 57 57 56 43
68 47 60 99 100 100 100 100 100 100 100 100 100 100 100 100 100 100 100 100 100 100 100 100 100 100 100 100 100 99 91 82 66 54 56 46 44 48 44 52 65 95 100
100 95 100 100 100 100 100 100 100 100 100 100 100 100 100 100 100 100 100 100 100 100 100 100 100 94 96 88 87 86 73 64 52 52 45 57 43 57 68 94 100 100 93
95 100 100 100 100 100 100 100 100 100 100 100 100 100 100 100 100 100 100 100 100 100 100 93 92 84 77 70 57 61 52 44 54 43 40 54 76 98 100 100 89 98 100
100 100 100 100 100 100 100 100 100 100 100 100 100 100 100 98 92 100 100 100 98 96 88 76 77 84 72 63 52 48 46 62 69 88 92 100 100 100 96 100 100 91 100
100 100 100 100 100 100 100 100 100 100 100 100 100 91 98 100 100 100 97 100 100 97 93 90 89 86 83 95 100 100 100 100 100 100 100 100 100 100 100 100 96 100 100
100 100 99 99 100 100 100 100 100 100 100 100 100 100 97 100 100 100 100 100 98 89 100 100 100 100 100 100 100 100 100 100 100 100 100 100 100 100 100 100 100 100 100
100 100 100 100 83 87 100 100 100 100 100 100 100 100 100 100 100 100 100 100 100 100 100 100 100 100 100 100 100 100 100 100 100 100 100 100 100 100 100 100 100 100 100
100 100 98 97 100 100 98 100 100 100 100 100 100 100 100 100 100 100 100 100 100 100 100 100 100 100 100 100 100 100 100 100 100 100 100 100 100 100 100 100 100 100 99
100 100 100 100 100 100 96 98 98 98 100 100 100 100 100 100 100 100 100 100 100 100 100 100 100 100 100 100 100 100 100 100 100 100 100 100 100 100 100 100 100 100 100
98 97 100 98 87 100 100 94 100 100 100 100 88 92 93 100 100 100 94 87 93 91 100 100 97 100 98 95 94 98 98 92 93 100 100 100 100 100 100 100 100 94 98
62 72 77 80 99 93 99 100 100 100 100 100 96 89 76 74 76 76 77 75 75 74 73 69 81 82 85 98 99 88 89 86 94 96 97 91 82 99 86 83 94 82 73
34 36 38 46 53 63 74 59 42 47 53 57 53 53 53 43 48 47 41 38 36 39 41 41 51 60 64 58 48 42 46 52 73 81 79 84 79 82 77 70 58 55 52
41 39 38 36 37 39 44 45 47 46 44 39 29 25 24 24 21 23 28 28 24 20 17 18 20 20 19 18 17 18 24 30 32 34 43 55 56 53 49 44 42 42 50
34 35 35 34 35 43 40 34 31 28 24 21 22 20 16 11 9 8 7 7 6 5 6 6 6 8 12 12 14 20 24 15 23 34 33 36 32 31 32 36 41 50 55
39 38 39 38 30 28 32 35 33 34 25 25 21 13 7 4 3 2 2 3 3 4 4 4 4 4 5 5 7 7 8 15 31 29 22 20 20 20 28 38 40 44 45
41 41 47 51 48 44 50 47 45 34 24 22 14 7 3 3 3 4 4 4 4 3 4 4 4 5 6 6 7 8 10 14 17 18 16 15 16 16 20 29 33 34 38
47 49 55 56 55 53 58 52 45 28 21 14 7 4 3 4 4 4 3 3 3 3 3 3 4 4 5 6 7 9 11 13 14 16 16 15 16 18 20 20 21 23 24
52 57 65 64 60 57 59 55 42 26 20 10 4 3 4 4 4 3 3 3 3 3 3 3 3 3 3 4 5 7 8 10 13 15 15 18 19 17 19 21 23 25 28
61 63 71 69 64 74 60 55 40 28 17 7 4 4 5 5 4 3 3 3 3 3 2 2 3 3 3 4 4 5 6 7 9 12 15 16 16 17 19 22 25 30 37
68 69 71 72 68 73 65 60 48 29 16 6 4 4 6 5 3 2 3 3 3 3 2 2 3 3 4 5 6 6 6 7 8 9 11 12 14 19 22 24 30 36 41
Wind_Speed
57 57 58 53 55 63 68 72 72 87 97 88 87 77 68 63 52 44 50 49 50 54 57 60 61 57 59 56 56 59 59 60 60 57 57 59 59 59 57 59 61 63 65
51 46 49 54 59 66 72 75 82 87 86 82 86 82 73 66 62 49 53 55 52 55 56 57 58 60 60 58 59 62 63 68 68 65 65 65 62 63 64 64 63 66 70
44 48 54 59 66 69 75 77 83 88 80 80 85 84 76 69 63 56 62 61 64 68 66 66 62 63 65 66 61 65 68 70 71 70 65 66 67 66 67 68 66 70 79
52 59 62 62 65 67 71 79 83 79 77 82 81 77 75 72 69 66 68 66 71 71 71 74 75 71 68 70 69 70 71 75 75 75 72 70 72 72 71 73 74 83 83
60 62 63 59 58 65 65 71 74 74 74 71 71 73 77 74 75 73 68 71 68 68 74 74 77 75 75 75 74 75 77 81 78 77 77 78 76 74 76 83 87 91 86
65 68 70 66 65 64 65 75 73 72 69 66 67 70 76 76 74 77 77 74 74 74 76 80 82 84 86 86 82 82 86 81 84 83 89 90 89 90 88 88 92 91 88
58 61 61 63 63 67 68 70 70 71 64 73 71 67 76 82 82 82 81 84 84 81 83 80 83 84 86 86 90 90 92 90 91 91 92 96 95 94 94 95 94 88 87
53 59 59 67 64 66 66 64 66 66 71 67 70 79 75 80 83 85 87 86 83 84 84 89 95 97 96 98 101 100 99 101 100 98 102 97 99 100 98 87 90 89 98
50 58 57 68 65 64 67 68 66 69 67 66 72 77 81 82 84 84 88 91 90 91 90 97 100 100 102 106 110 105 109 107 104 106 107 105 100 99 95 95 96 88 90
45 45 60 67 68 74 69 68 63 69 64 63 67 73 78 82 87 87 89 91 94 96 97 102 101 101 102 107 111 110 107 106 108 106 105 103 103 104 103 92 98 100 87
51 55 58 60 71 70 66 65 66 69 73 67 74 79 80 85 85 89 96 95 98 102 103 102 102 104 106 100 102 102 103 107 106 106 104 105 101 99 102 103 97 95 98
54 53 54 57 58 63 72 70 75 76 77 73 72 75 84 84 86 93 96 98 100 101 101 102 105 110 111 105 105 111 115 113 111 107 104 111 106 104 107 108 106 105 106
61 61 65 58 66 68 67 70 79 85 82 87 86 85 90 91 93 97 99 106 104 104 109 107 111 115 116 118 115 117 115 111 110 112 110 108 112 119 119 119 124 119 114
59 57 68 72 69 72 73 77 79 78 79 88 90 88 94 96 102 107 108 112 114 118 123 120 122 120 119 120 119 121 124 128 131 128 128 133 133 130 130 131 130 128 134
66 61 67 68 74 77 80 85 86 88 91 93 95 98 103 109 114 117 114 119 128 132 131 131 133 135 134 131 132 134 140 137 137 140 141 144 140 141 139 143 143 145 143
53 59 66 70 77 78 80 84 90 93 96 102 107 110 112 117 125 133 135 135 138 136 141 142 142 145 146 145 146 147 149 148 147 147 148 149 145 145 147 151 148 147 141
69 73 71 78 83 89 89 89 95 98 103 104 110 116 116 119 122 125 137 149 153 155 161 159 154 155 155 154 158 156 155 153 157 161 158 156 162 150 150 144 138 135 138
36 42 46 51 62 73 80 73 63 65 73 90 96 99 105 106 113 125 130 132 137 143 148 149 153 159 163 165 160 157 155 155 153 149 150 143 141 142 145 139 136 135 133
33 38 39 42 43 49 56 62 71 78 88 93 100 100 100 113 114 113 125 128 127 127 126 130 134 133 134 124 121 125 130 135 139 139 138 135 137 141 140 136 131 128 127
38 42 45 48 50 57 61 68 73 82 87 86 84 88 93 98 100 107 110 114 116 114 117 118 118 122 128 125 122 120 126 132 121 121 120 124 130 130 129 127 124 122 121
44 45 51 54 55 58 63 68 72 80 80 79 83 85 89 87 85 84 84 84 84 84 86 90 93 96 99 103 101 105 107 107 112 116 110 114 125 117 115 117 116 118 115
53 59 65 69 70 71 77 77 83 87 81 81 83 84 80 75 73 72 72 71 71 72 74 76 79 82 86 88 89 87 89 93 99 102 102 103 101 102 101 101 102 101 98
61 67 72 76 77 78 83 85 90 88 81 81 79 74 71 67 64 63 62 62 61 60 61 63 66 69 71 76 78 79 80 84 83 83 85 86 85 87 86 85 83 82 79
67 72 76 80 82 84 88 91 93 89 84 83 75 68 66 64 61 58 56 54 53 53 53 55 57 58 60 64 68 71 74 75 74 78 77 76 79 76 74 72 70 68 68
72 75 79 83 85 90 90 94 95 91 87 81 72 66 64 62 58 53 50 49 48 46 46 48 49 50 53 55 58 61 64 67 69 69 72 73 72 70 68 66 66 65 66
75 78 82 86 90 92 95 97 97 91 87 78 70 64 60 60 56 50 47 45 43 41 42 42 43 44 46 48 51 54 56 57 60 62 64 64 63 64 64 63 63 63 64
Wind_Direction
229 227 225 220 214 214 217 219 221 216 215 219 216 218 222 227 230 228 239 250 260 268 270 263 262 260 264 267 268 271 277 281 284 288 291 296 300 301 302 305 308 306 308
216 215 214 211 212 217 219 216 215 213 218 218 214 220 222 229 232 228 238 251 260 265 262 256 260 263 264 265 268 272 275 279 283 289 293 294 298 299 299 302 300 304 305
207 206 210 211 210 212 209 212 213 218 220 220 219 221 225 229 237 233 239 249 255 264 265 258 261 263 266 267 270 273 275 279 286 293 296 295 296 296 298 297 297 302 305
186 192 199 206 210 207 209 210 213 214 214 215 218 220 229 231 237 241 248 253 259 261 262 262 262 262 266 268 270 273 276 281 286 292 292 290 294 296 296 299 296 302 302
184 189 196 203 202 202 204 209 210 212 217 218 218 220 227 232 239 244 249 255 258 260 260 262 261 265 268 270 272 276 279 286 288 290 290 293 296 293 293 297 302 305 299
185 191 195 197 198 202 204 204 207 213 213 217 220 225 229 238 244 248 247 253 257 259 259 261 265 268 272 275 280 283 285 284 286 286 290 294 296 296 295 299 301 304 302
188 193 194 195 196 196 197 207 210 218 220 224 225 231 235 239 244 246 250 253 256 260 264 269 273 274 275 277 277 280 285 287 289 291 292 293 295 296 298 296 297 292 294
188 193 194 194 199 200 203 209 214 219 224 228 231 234 236 237 244 248 253 256 262 263 265 267 270 272 275 276 279 280 283 286 289 288 289 291 292 292 294 294 292 295 300
197 197 197 199 203 205 212 214 221 227 230 233 237 240 242 245 247 252 257 259 261 265 267 266 269 272 276 277 279 282 281 282 284 287 287 290 291 292 291 290 296 297 298
197 207 208 209 206 210 212 221 226 230 237 242 243 247 249 254 253 257 257 260 263 265 268 268 269 276 275 276 277 279 281 281 283 285 288 287 290 291 293 294 295 299 294
205 212 210 215 215 214 220 226 229 236 238 247 245 247 252 255 257 258 258 262 263 266 270 271 273 275 275 274 276 277 279 281 281 282 284 284 285 286 286 289 292 289 292
210 213 216 224 228 228 231 232 235 235 241 246 251 256 256 258 261 263 263 267 268 268 268 272 271 270 270 269 271 273 276 276 276 278 276 277 282 281 283 285 287 289 289
216 220 223 230 232 233 237 240 242 241 244 248 252 257 256 259 265 266 266 267 268 267 268 264 266 266 267 271 272 272 271 272 275 276 276 275 275 278 280 279 283 283 287
230 233 230 232 238 240 239 242 243 246 250 254 258 262 263 264 263 263 267 268 267 267 269 269 267 264 263 265 268 269 268 270 275 275 273 275 277 277 278 280 283 281 285
232 242 242 247 245 245 250 249 249 251 255 257 260 262 267 267 267 267 270 270 268 266 265 266 265 266 265 266 268 270 271 271 273 272 273 276 275 275 278 279 281 283 287
244 251 254 253 247 251 258 261 257 260 263 263 263 268 271 272 272 272 271 269 268 266 266 267 269 268 268 268 269 270 271 272 274 275 274 275 276 277 279 279 280 284 285
258 256 262 261 257 256 258 265 271 271 267 269 271 271 274 273 270 269 268 267 267 267 264 263 265 267 268 268 272 274 274 274 274 275 275 274 275 278 278 279 280 282 283
259 260 262 263 265 266 266 273 277 280 278 275 272 269 269 274 269 266 265 267 268 270 270 270 269 269 269 270 271 272 271 271 270 270 271 272 274 273 276 277 280 280 282
269 276 278 277 282 276 278 278 272 273 272 275 277 280 277 272 270 270 269 267 268 270 273 273 272 271 271 269 268 270 269 268 269 269 271 270 272 272 275 276 278 277 278
276 281 282 285 286 294 283 277 281 278 277 281 285 285 286 283 278 274 274 273 272 271 270 270 269 267 266 267 266 266 264 267 270 266 266 266 268 271 273 274 274 275 276
285 292 291 293 299 306 310 309 305 306 304 305 300 297 294 290 287 284 281 278 276 274 271 269 268 268 268 267 265 265 266 266 259 263 264 265 269 269 270 270 271 272 275
298 316 323 325 323 322 322 320 319 314 313 310 307 304 299 295 292 288 286 283 279 275 271 269 266 264 264 264 265 263 263 263 261 260 264 265 265 269 271 270 271 273 275
319 323 325 325 326 326 327 324 321 318 318 313 313 308 303 300 297 294 289 285 282 278 273 269 266 263 261 259 260 260 259 259 261 260 262 266 268 269 270 270 272 273 273
321 323 325 325 327 328 328 326 322 322 321 319 318 315 310 307 305 302 297 292 288 284 279 274 270 267 263 260 259 258 257 259 259 260 262 263 264 267 267 268 269 271 272
319 322 324 323 326 327 328 326 323 326 324 323 323 322 316 313 311 308 304 298 294 290 283 278 274 269 264 261 259 258 258 258 259 259 260 262 264 266 268 268 268 269 269
318 321 321 323 326 326 328 327 325 328 325 326 327 325 321 318 316 314 310 305 302 295 287 280 274 269 265 262 260 259 259 258 258 259 260 262 264 263 262 264 266 267 267